Weather History for Sioux City, IA

Change the Weather History Date:

Thursday, September 4, 2014

  Actual Average Record
Temperature  
Mean Temperature 75 °F 68 °F  
Max Temperature 84 °F 80 °F 99 °F (1913)
Min Temperature 65 °F 56 °F 37 °F (1902)
Degree Days  
Heating Degree Days 0 2  
Month to date heating degree days 0 5  
Since 1 July heating degree days 6 20  
Cooling Degree Days 10 5  
Month to date cooling degree days 26 20  
Year to date cooling degree days 792 797  
Growing Degree Days 26 (Base 50)    
Moisture  
Dew Point 66 °F    
Average Humidity 76    
Maximum Humidity 94    
Minimum Humidity 57    
Precipitation  
Precipitation 0.00 in 0.10 in 1.10 in (1994)
Month to date precipitation 0.11 0.42  
Year to date precipitation 35.74 20.96  
Snow  
Snow 0.00 in 0.00 in 0.00 in ()
Month to date snowfall 0.0 0.0  
Since 1 July snowfall 0.0 0.0  
Since 1 September snowfall 0.0 0.0  
Snow Depth 0.00 in    
Sea Level Pressure  
Sea Level Pressure 29.77 in    
Wind  
Wind Speed 9 mph (WNW)    
Max Wind Speed 17 mph    
Max Gust Speed 22 mph    
Visibility 10 miles    
Events Thunderstorm    
T = Trace of Precipitation, MM = Missing Value Source: NWS Daily Summary

Daily Weather History Graph

Daily Weather History Graph

Search for Another Location

Airport:

Trip Planner

Search our weather history database for the weather conditions in past years. The results will help you decide how hot, cold, wet, or windy it might be!

Date:

Astronomy

Sep. 04, 2014 Rise Set
Actual Time 6:53 AM CDT 7:54 PM CDT
Civil Twilight 6:25 AM CDT 8:23 PM CDT
Nautical Twilight 5:50 AM CDT 8:57 PM CDT
Astronomical Twilight 5:14 AM CDT 9:32 PM CDT
Moon 4:36 PM CDT (9/4) 1:42 AM CDT (9/4)
Length of Visible Light 13h 57m
Length of Day
13h 00m
Waxing Gibbous, 74% of the Moon is Illuminated
Sep 4
Waxing Gibbous
Sep 8
Full
Sep 15
Last Quarter
Sep 24
New
Oct 1
First Quarter

Hourly Weather History & Observations

Time (CDT) Temp. Heat Index Dew Point Humidity Pressure Visibility Wind Dir Wind Speed Gust Speed Precip Events Conditions
12:52 AM 75.9 °F - 73.0 °F 91% 29.63 in 10.0 mi SSE 9.2 mph - N/A   Clear
1:52 AM 75.9 °F - 72.0 °F 87% 29.62 in 10.0 mi SSE 9.2 mph - N/A   Clear
2:52 AM 75.9 °F - 71.1 °F 85% 29.62 in 10.0 mi South 8.1 mph - N/A   Clear
3:52 AM 75.9 °F - 70.0 °F 82% 29.62 in 10.0 mi South 6.9 mph - N/A   Clear
4:52 AM 72.0 °F - 70.0 °F 93% 29.62 in 10.0 mi SE 5.8 mph - N/A   Clear
5:52 AM 73.9 °F - 69.1 °F 85% 29.61 in 10.0 mi South 10.4 mph - N/A   Clear
6:52 AM 73.0 °F - 68.0 °F 84% 29.65 in 10.0 mi North 6.9 mph - N/A   Clear
7:52 AM 73.9 °F - 69.1 °F 85% 29.66 in 10.0 mi Calm Calm - N/A   Clear
8:52 AM 77.0 °F - 70.0 °F 79% 29.67 in 10.0 mi South 6.9 mph - N/A   Clear
9:52 AM 81.0 °F 84.4 °F 70.0 °F 69% 29.68 in 10.0 mi SW 9.2 mph - N/A   Clear
10:52 AM 82.9 °F 87.0 °F 70.0 °F 65% 29.69 in 10.0 mi WSW 9.2 mph 18.4 mph N/A   Clear
11:52 AM 82.0 °F 85.5 °F 69.1 °F 65% 29.71 in 10.0 mi WNW 10.4 mph 19.6 mph N/A   Scattered Clouds
11:54 AM 81.0 °F 84.1 °F 69.1 °F 67% 29.74 in 10.0 mi NW 9.2 mph 19.6 mph N/A   Mostly Cloudy
12:38 PM 82.9 °F 85.8 °F 68.0 °F 60% 29.75 in 10.0 mi NW 10.4 mph - N/A   Partly Cloudy
12:52 PM 82.9 °F 85.8 °F 68.0 °F 60% 29.74 in 10.0 mi WNW 12.7 mph - N/A   Clear
1:24 PM 80.1 °F 82.9 °F 69.1 °F 69% 29.79 in 10.0 mi NW 11.5 mph - N/A   Mostly Cloudy
1:52 PM 80.1 °F 82.9 °F 69.1 °F 69% 29.76 in 10.0 mi WNW 8.1 mph - N/A   Overcast
2:52 PM 81.0 °F 84.1 °F 69.1 °F 67% 29.77 in 10.0 mi WNW 8.1 mph - N/A   Mostly Cloudy
2:59 PM 81.0 °F 84.1 °F 69.1 °F 67% 29.80 in 10.0 mi WNW 8.1 mph - N/A   Scattered Clouds
3:20 PM 80.1 °F 82.9 °F 69.1 °F 69% 29.81 in 10.0 mi West 8.1 mph - N/A   Mostly Cloudy
3:52 PM 80.6 °F 83.9 °F 69.8 °F 70% 29.81 in 10.0 mi WNW 8.1 mph - N/A   Overcast
4:20 PM 75.9 °F - 68.0 °F 76% 29.82 in 10.0 mi NW 13.8 mph 23.0 mph N/A   Overcast
4:52 PM 77.0 °F - 68.0 °F 74% 29.81 in 10.0 mi NW 8.1 mph 17.3 mph N/A   Overcast
5:52 PM 79.0 °F - 68.0 °F 69% 29.83 in 10.0 mi NW 12.7 mph - N/A   Mostly Cloudy
6:52 PM 77.0 °F - 66.9 °F 71% 29.85 in 10.0 mi NNW 8.1 mph - N/A   Clear
7:52 PM 73.9 °F - 64.9 °F 73% 29.87 in 10.0 mi NW 10.4 mph 17.3 mph N/A   Clear
8:52 PM 71.1 °F - 57.0 °F 61% 29.91 in 10.0 mi NNW 10.4 mph - N/A   Partly Cloudy
9:52 PM 69.8 °F - 55.4 °F 60% 29.95 in 10.0 mi NNW 8.1 mph - N/A   Mostly Cloudy
10:38 PM 70.0 °F - 54.0 °F 57% 29.97 in 10.0 mi NNW 13.8 mph - N/A Thunderstorm Mostly Cloudy
10:52 PM 70.0 °F - 54.0 °F 57% 29.96 in 10.0 mi North 12.7 mph - N/A Thunderstorm Mostly Cloudy
11:36 PM 68.0 °F - 54.0 °F 61% 30.02 in 10.0 mi North 8.1 mph - N/A   Mostly Cloudy
11:47 PM 68.0 °F - 53.6 °F 60% 30.02 in 10.0 mi North 11.5 mph - N/A Thunderstorm Scattered Clouds
11:52 PM 68.0 °F - 54.0 °F 61% 30.00 in 10.0 mi North 11.5 mph - N/A Thunderstorm Scattered Clouds